DW7853 Weather Reports


Display with metric or nautical units.
time (UTC)temp
F
wind
direction
speed
MPH
gust
MPH
rain 1hr
in
rain 24hr
in
rain mn
in
humidity
%
barometer
mb
20220627142522 75 35 1.0 3.0 0.00 0.00 0.00 80 1011.0
20220627141613 74 0.0 2.0 0.00 0.00 0.00 82 1011.2
20220627140603 73 21 0.0 1.0 0.00 0.00 0.00 83 1011.1
20220627135553 73 173 1.0 2.0 0.00 0.00 0.00 83 1011.2
20220627134543 72 97 0.0 2.0 0.00 0.00 0.00 82 1011.2
20220627133533 73 94 1.0 3.0 0.00 0.00 0.00 81 1011.2
20220627132523 73 42 0.0 1.0 0.00 0.00 0.00 81 1011.3
20220627131614 72 73 1.0 2.0 0.00 0.00 0.00 81 1011.3
20220627130604 72 96 0.0 1.0 0.00 0.00 0.00 80 1011.3
20220627125553 72 111 0.0 2.0 0.00 0.00 0.00 81 1011.3
20220627124544 71 36 0.0 3.0 0.00 0.00 0.00 82 1011.5
20220627123533 71 37 0.0 2.0 0.00 0.00 0.00 81 1011.4
20220627122525 71 37 0.0 2.0 0.00 0.00 0.00 80 1011.4
20220627121614 71 37 1.0 2.0 0.00 0.00 0.00 81 1011.4
20220627120604 71 37 1.0 3.0 0.00 0.00 0.00 80 1011.4
20220627115554 71 37 0.0 1.0 0.00 0.00 0.00 80 1011.5
20220627114546 70 0.0 3.0 0.00 0.00 0.00 81 1011.4
20220627113535 70 73 0.0 1.0 0.00 0.00 0.00 81 1011.5
20220627112526 70 73 1.0 2.0 0.00 0.00 0.00 80 1011.6
20220627111615 70 72 0.0 1.0 0.00 0.00 0.00 81 1011.6
20220627110605 70 70 0.0 1.0 0.00 0.00 0.00 81 1011.6
20220627105555 69 71 0.0 2.0 0.00 0.00 0.00 79 1011.5
20220627104545 69 93 0.0 1.0 0.00 0.00 0.00 79 1011.6
20220627103535 68 93 0.0 1.0 0.00 0.00 0.00 78 1011.3
20220627102525 68 93 0.0 1.0 0.00 0.00 0.00 78 1011.3
20220627101616 68 93 0.0 1.0 0.00 0.00 0.00 77 1011.5
20220627100607 67 0.0 0.0 0.00 0.00 0.00 76 1011.7
20220627095556 67 0.0 0.0 0.00 0.00 0.00 76 1011.9
20220627094546 67 0.0 0.0 0.00 0.00 0.00 76 1011.8
20220627093537 67 0.0 1.0 0.00 0.00 0.00 76 1011.8
20220627092526 67 93 0.0 1.0 0.00 0.00 0.00 76 1011.9
20220627091617 67 93 0.0 1.0 0.00 0.00 0.00 75 1012.0
20220627090607 67 0.0 0.0 0.00 0.00 0.00 74 1012.1
20220627085557 67 0.0 0.0 0.00 0.00 0.00 74 1012.2
20220627084547 67 0.0 0.0 0.00 0.00 0.00 74 1012.2
20220627083537 67 131 0.0 1.0 0.00 0.00 0.00 74 1012.2
20220627082526 67 0.0 0.0 0.00 0.00 0.00 74 1012.2
20220627081517 67 0.0 0.0 0.00 0.00 0.00 73 1012.3
20220627080608 68 0.0 0.0 0.00 0.00 0.00 71 1012.6
20220627075557 68 18 0.0 1.0 0.00 0.00 0.00 70 1012.6
20220627074547 68 0.0 0.0 0.00 0.00 0.00 69 1012.8
20220627073539 68 18 0.0 1.0 0.00 0.00 0.00 68 1012.8
20220627072527 68 6 0.0 2.0 0.00 0.00 0.00 67 1013.1
20220627071519 68 0.0 1.0 0.00 0.00 0.00 67 1013.1
20220627070608 69 355 0.0 1.0 0.00 0.00 0.00 66 1013.3
20220627065558 68 355 0.0 1.0 0.00 0.00 0.00 66 1013.4
20220627064548 68 0.0 1.0 0.00 0.00 0.00 66 1013.5
20220627063538 69 355 0.0 1.0 0.00 0.00 0.00 65 1013.6
20220627062528 69 0.0 0.0 0.00 0.00 0.00 65 1013.8
20220627061519 69 359 0.0 2.0 0.00 0.00 0.00 65 1013.7
20220627060609 69 32 0.0 2.0 0.00 0.00 0.00 64 1013.8
20220627055559 69 32 1.0 2.0 0.00 0.00 0.00 64 1014.0
20220627054549 70 39 1.0 3.0 0.00 0.00 0.00 63 1013.9
20220627053539 70 86 0.0 2.0 0.00 0.00 0.00 63 1014.0
20220627052529 70 27 0.0 1.0 0.00 0.00 0.00 62 1014.1
20220627051519 70 28 0.0 1.0 0.00 0.00 0.00 62 1014.1
20220627050610 70 27 0.0 2.0 0.00 0.00 0.00 62 1014.2
20220627045600 71 97 0.0 2.0 0.00 0.00 0.00 61 1014.1
20220627044550 71 61 0.0 3.0 0.00 0.00 0.00 61 1014.1
20220627043540 71 34 0.0 1.0 0.00 0.00 0.00 62 1014.3
20220627042529 71 0.0 2.0 0.00 0.00 0.00 62 1014.3
20220627041520 72 33 0.0 1.0 0.00 0.00 0.00 62 1014.5
20220627040612 72 319 0.0 2.0 0.00 0.00 0.00 64 1014.6
20220627035600 72 320 1.0 2.0 0.00 0.00 0.00 65 1014.6
20220627034551 72 158 0.0 2.0 0.00 0.00 0.00 65 1014.8
20220627033540 73 158 1.0 1.0 0.00 0.00 0.00 68 1014.9
20220627032531 73 158 0.0 2.0 0.00 0.00 0.00 69 1014.8
20220627031521 73 87 0.0 2.0 0.00 0.00 0.00 71 1014.8
20220627030611 74 14 1.0 2.0 0.00 0.00 0.00 70 1014.9
20220627025601 74 358 0.0 2.0 0.00 0.00 0.00 72 1014.9
20220627024551 74 358 1.0 2.0 0.00 0.00 0.00 73 1014.8
20220627023541 75 358 1.0 2.0 0.00 0.00 0.00 73 1014.8
20220627022531 75 358 0.0 2.0 0.00 0.00 0.00 75 1015.0
20220627021521 75 359 1.0 2.0 0.00 0.00 0.00 75 1015.0
20220627020612 75 358 0.0 1.0 0.00 0.00 0.00 74 1015.0
20220627015602 75 358 0.0 2.0 0.00 0.00 0.00 74 1015.2
20220627014552 76 243 0.0 1.0 0.00 0.00 0.00 73 1015.2
20220627013542 76 243 0.0 1.0 0.00 0.00 0.00 73 1015.1
20220627012532 76 243 0.0 2.0 0.00 0.00 0.00 72 1014.9
20220627011523 77 243 1.0 3.0 0.00 0.00 0.00 71 1014.8
20220627010612 77 33 0.0 1.0 0.00 0.00 0.00 69 1014.6
20220627005603 78 0.0 0.0 0.00 0.00 0.00 68 1014.5
20220627004553 78 33 0.0 2.0 0.00 0.00 0.00 68 1014.6
20220627003543 78 33 0.0 1.0 0.00 0.00 0.00 67 1014.6
20220627002532 79 33 0.0 1.0 0.00 0.00 0.00 66 1014.4
20220627001523 79 57 0.0 2.0 0.00 0.00 0.00 65 1014.2
20220627000613 80 324 0.0 1.0 0.00 0.00 0.00 64 1014.3
20220626235605 80 324 1.0 2.0 0.00 0.00 0.00 63 1014.3
20220626234555 80 324 0.0 2.0 0.00 0.00 0.00 62 1014.2
20220626233544 81 321 0.0 2.0 0.00 0.00 0.00 60 1014.1
20220626232533 81 323 0.0 2.0 0.00 0.00 0.00 58 1014.1
20220626231523 82 53 0.0 1.0 0.00 0.00 0.00 57 1014.0
20220626230614 82 53 0.0 1.0 0.00 0.00 0.00 56 1014.0
20220626225604 83 87 0.0 1.0 0.00 0.00 0.00 55 1013.8
20220626224554 83 68 0.0 2.0 0.00 0.00 0.00 55 1014.0
20220626223544 84 47 0.0 2.0 0.00 0.00 0.00 54 1013.9
20220626222534 84 132 0.0 2.0 0.00 0.00 0.00 54 1014.0
20220626221523 84 13 0.0 1.0 0.00 0.00 0.00 54 1014.0
20220626220612 85 327 0.0 2.0 0.00 0.00 0.00 53 1013.9
20220626215602 85 350 0.0 3.0 0.00 0.00 0.00 53 1014.2
20220626214552 86 337 0.0 1.0 0.00 0.00 0.00 52 1014.3
20220626213542 86 197 0.0 2.0 0.00 0.00 0.00 52 1014.5
20220626212532 86 46 0.0 2.0 0.00 0.00 0.00 53 1014.7
20220626211522 86 40 0.0 2.0 0.00 0.00 0.00 51 1014.7
20220626210613 86 51 0.0 1.0 0.00 0.00 0.00 50 1015.0
20220626205602 88 0 0.0 2.0 0.00 0.00 0.00 49 1015.0
20220626204552 88 261 0.0 2.0 0.00 0.00 0.00 48 1015.2
20220626203543 88 168 0.0 1.0 0.00 0.00 0.00 49 1015.0
20220626202533 88 318 0.0 1.0 0.00 0.00 0.00 48 1015.0
20220626201523 90 327 0.0 2.0 0.00 0.00 0.00 45 1015.2
20220626200613 91 263 0.0 3.0 0.00 0.00 0.00 41 1015.1
20220626195603 91 354 1.0 2.0 0.00 0.00 0.00 44 1015.1
20220626194553 91 301 0.0 1.0 0.00 0.00 0.00 47 1015.3
20220626193544 90 305 1.0 2.0 0.00 0.00 0.00 44 1015.4
20220626192534 89 329 1.0 4.0 0.00 0.00 0.00 46 1015.5
20220626191521 90 358 1.0 2.0 0.00 0.00 0.00 49 1015.6
20220626190612 90 54 1.0 2.0 0.00 0.00 0.00 48 1015.8
20220626185602 90 69 0.0 2.0 0.00 0.00 0.00 47 1015.8
20220626184552 89 278 1.0 2.0 0.00 0.00 0.00 48 1015.8
20220626183542 89 26 1.0 4.0 0.00 0.00 0.00 47 1016.0
20220626182532 89 167 1.0 2.0 0.00 0.00 0.00 49 1016.0
20220626181523 88 20 1.0 3.0 0.00 0.00 0.00 48 1016.1
20220626180613 89 123 1.0 2.0 0.00 0.00 0.00 46 1016.4
20220626175603 89 65 0.0 2.0 0.00 0.00 0.00 50 1016.4
20220626174553 88 90 1.0 3.0 0.00 0.00 0.00 47 1016.5
20220626173543 88 8 1.0 3.0 0.00 0.00 0.00 50 1016.6
20220626172532 88 239 0.0 2.0 0.00 0.00 0.00 49 1016.8
20220626171523 89 144 0.0 2.0 0.00 0.00 0.00 48 1017.0
20220626170613 88 36 1.0 2.0 0.00 0.00 0.00 46 1017.1
20220626165605 88 330 1.0 2.0 0.00 0.00 0.00 51 1017.2
20220626164553 87 295 1.0 2.0 0.00 0.00 0.00 49 1017.3
20220626163544 87 35 1.0 4.0 0.00 0.00 0.00 48 1017.5
20220626162533 87 294 0.0 2.0 0.00 0.00 0.00 49 1017.6
20220626161523 88 294 1.0 2.0 0.00 0.00 0.00 48 1017.7
20220626160614 87 287 1.0 3.0 0.00 0.00 0.00 52 1017.8
20220626155605 86 34 1.0 3.0 0.00 0.00 0.00 50 1017.8
20220626154555 87 58 0.0 2.0 0.00 0.00 0.00 52 1017.8
20220626153544 86 50 1.0 2.0 0.00 0.00 0.00 55 1017.8
20220626152534 86 160 1.0 4.0 0.00 0.00 0.00 59 1017.9
20220626151524 85 85 1.0 2.0 0.00 0.00 0.00 62 1018.0
20220626150615 84 64 1.0 3.0 0.00 0.00 0.00 60 1018.2
20220626145606 84 358 0.0 2.0 0.00 0.00 0.00 63 1018.2
20220626144555 83 87 1.0 2.0 0.00 0.00 0.00 63 1018.4
20220626143545 83 45 0.0 3.0 0.00 0.00 0.00 62 1018.4